Regional Weather Roundup
Issued by NWS Sioux Falls, SD

Home | Current Version | Previous Version | Text Only | Print | Product List | Glossary Off
Versions: 1 2 3 4 5 6 7 8 9 10 11 12 13 14 15 16 17 18 19 20 21 22 23 24 25 26 27 28 29 30 31 32 33 34 35 36 37 38 39 40 41 42 43 44 45 46 47 48 49 50

000
ASUS43 KFSD 251302
RWRFSD

WEATHER ROUNDUP FOR SE SOUTH DAKOTA/SW MINNESOTA/NW IOWA
NATIONAL WEATHER SERVICE SIOUX FALLS SD
700 AM CST SUN JAN 25 2015

NOTE: "FAIR" INDICATES FEW OR NO CLOUDS BELOW 12,000 FEET WITH NO
SIGNIFICANT WEATHER AND OR OBSTRUCTIONS TO VISIBILITY.


SDZ038>040-050-052>070-251400-
SOUTHEAST SOUTH DAKOTA

CITY           SKY/WX    TMP DP  RH WIND       PRES   REMARKS
CHAMBERLAIN    NOT AVBL
HURON          CLOUDY    30  28  92 N12       29.95R WCI  20
MADISON        CLOUDY    32  32 100 N15G22    29.90R WCI  22
MITCHELL       CLOUDY    32  30  92 N13       29.96R WCI  22
SIOUX FALLS    CLOUDY    33  32  96 N14       29.89R WCI  23
WINNER         CLOUDY    38  31  76 NW16      29.98R
YANKTON        CLOUDY    32  28  86 NW18      29.92R WCI  20
$$

MNZ071-072-080-081-089-090-097-098-251400-
SOUTHWEST MINNESOTA

CITY           SKY/WX    TMP DP  RH WIND       PRES   REMARKS
FAIRMONT       CLOUDY    30  27  86 N16G22    29.83R WCI  19
JACKSON        CLOUDY    32  30  93 N14       29.85R WCI  22
LUVERNE        CLOUDY    34  32  93 N10       29.88R WCI  26
MARSHALL       CLOUDY    32  28  86 N12       29.92R WCI  23
MONTEVIDEO     CLOUDY    32  30  93 E6        29.93R WCI  26
PIPESTONE      CLOUDY    32  30  93 N12       29.87R FOG     WCI  23
REDWOOD FALLS  CLOUDY    30  25  81 NE8       29.91R WCI  22
TRACY          CLOUDY    32  31  96 N12       29.89R WCI  23
WINDOM         CLOUDY    30  28  93 N12       29.86R WCI  21
WORTHINGTON    CLOUDY    30  28  93 N20       29.86R WCI  18
$$

IAZ001>003-012>014-020>022-031-032-NEZ013-014-SDZ071-251400-
NORTHWEST IOWA

CITY           SKY/WX    TMP DP  RH WIND       PRES   REMARKS
ESTHERVILLE    CLOUDY    31  30  96 N20       29.82R WCI  19
SIOUX CITY     CLOUDY    35  32  88 N18G24    29.85R WCI  24
SPENCER        MIX PCPN  34  30  85 N22G29    29.81R WCI  22
$$

ABBREVIATIONS USED IN REMARKS
   TC - TEMPERATURE IN CELSIUS
  WCI - WIND CHILL INDEX
   HX - HEAT INDEX
  VSB - VISIBILITY




USA.gov is the U.S. government's official web portal to all federal, state and local government web resources and services.